Year,Month,Day,Hour,Minute,Value (Times are PST for windgust in km/hr)
2010,11,16,00,00,1.60
2010,11,16,00,01,3.20
2010,11,16,00,02,8.10
2010,11,16,00,03,9.60
2010,11,16,00,04,6.40
2010,11,16,00,05,8.10
2010,11,16,00,06,17.70
2010,11,16,00,07,16.10
2010,11,16,00,08,3.20
2010,11,16,00,09,3.20
2010,11,16,00,10,6.40
2010,11,16,00,11,4.80
2010,11,16,00,12,9.60
2010,11,16,00,13,6.40
2010,11,16,00,14,1.60
2010,11,16,00,15,8.10
2010,11,16,00,16,3.20
2010,11,16,00,17,4.80
2010,11,16,00,18,6.40
2010,11,16,00,19,6.40
2010,11,16,00,20,17.70
2010,11,16,00,21,8.10
2010,11,16,00,22,3.20
2010,11,16,00,23,3.20
2010,11,16,00,24,6.40
2010,11,16,00,25,6.40
2010,11,16,00,26,4.80
2010,11,16,00,27,9.60
2010,11,16,00,28,6.40
2010,11,16,00,29,6.40
2010,11,16,00,30,11.30
2010,11,16,00,31,8.10
2010,11,16,00,32,6.40
2010,11,16,00,33,6.40
2010,11,16,00,34,4.80
2010,11,16,00,35,4.80
2010,11,16,00,36,3.20
2010,11,16,00,37,4.80
2010,11,16,00,38,8.10
2010,11,16,00,39,8.10
2010,11,16,00,40,4.80
2010,11,16,00,41,6.40
2010,11,16,00,42,4.80
2010,11,16,00,43,6.40
2010,11,16,00,44,6.40
2010,11,16,00,45,6.40
2010,11,16,00,46,3.20
2010,11,16,00,47,3.20
2010,11,16,00,48,4.80
2010,11,16,00,49,6.40
2010,11,16,00,50,3.20
2010,11,16,00,51,1.60
2010,11,16,00,53,8.10
2010,11,16,00,54,14.50
2010,11,16,00,55,11.30
2010,11,16,00,56,11.30
2010,11,16,00,57,3.20
2010,11,16,00,58,8.10
2010,11,16,00,59,14.50
2010,11,16,01,00,14.50
2010,11,16,01,01,12.90
2010,11,16,01,02,9.60
2010,11,16,01,03,9.60
2010,11,16,01,04,16.10
2010,11,16,01,05,11.30
2010,11,16,01,06,8.10
2010,11,16,01,07,4.80
2010,11,16,01,08,16.10
2010,11,16,01,09,11.30
2010,11,16,01,10,8.10
2010,11,16,01,11,14.50
2010,11,16,01,12,9.60
2010,11,16,01,13,9.60
2010,11,16,01,14,4.80
2010,11,16,01,15,8.10
2010,11,16,01,16,6.40
2010,11,16,01,17,3.20
2010,11,16,01,18,4.80
2010,11,16,01,19,4.80
2010,11,16,01,20,4.80
2010,11,16,01,21,16.10
2010,11,16,01,22,11.30
2010,11,16,01,23,6.40
2010,11,16,01,24,8.10
2010,11,16,01,25,11.30
2010,11,16,01,26,9.60
2010,11,16,01,27,8.10
2010,11,16,01,28,11.30
2010,11,16,01,29,17.70
2010,11,16,01,30,11.30
2010,11,16,01,31,3.20
2010,11,16,01,32,1.60
2010,11,16,01,33,3.20
2010,11,16,01,34,1.60
2010,11,16,01,42,1.60
2010,11,16,01,44,3.20
2010,11,16,01,45,3.20
2010,11,16,01,46,3.20
2010,11,16,01,47,3.20
2010,11,16,01,48,1.60
2010,11,16,01,49,3.20
2010,11,16,01,50,4.80
2010,11,16,01,51,4.80
2010,11,16,01,52,4.80
2010,11,16,01,53,3.20
2010,11,16,01,54,3.20
2010,11,16,01,55,6.40
2010,11,16,01,56,3.20
2010,11,16,01,57,6.40
2010,11,16,01,58,4.80
2010,11,16,01,59,4.80
2010,11,16,02,00,6.40
2010,11,16,02,01,3.20
2010,11,16,02,02,4.80
2010,11,16,02,03,6.40
2010,11,16,02,04,4.80
2010,11,16,02,05,4.80
2010,11,16,02,06,4.80
2010,11,16,02,07,3.20
2010,11,16,02,08,1.60
2010,11,16,02,09,4.80
2010,11,16,02,10,4.80
2010,11,16,02,11,3.20
2010,11,16,02,12,3.20
2010,11,16,02,13,3.20
2010,11,16,02,14,3.20
2010,11,16,02,15,1.60
2010,11,16,02,25,3.20
2010,11,16,02,26,1.60
2010,11,16,02,27,1.60
2010,11,16,02,29,3.20
2010,11,16,02,30,3.20
2010,11,16,02,31,4.80
2010,11,16,02,32,3.20
2010,11,16,02,34,3.20
2010,11,16,02,35,4.80
2010,11,16,02,36,4.80
2010,11,16,02,37,3.20
2010,11,16,02,38,11.30
2010,11,16,02,39,6.40
2010,11,16,02,40,6.40
2010,11,16,02,41,4.80
2010,11,16,02,42,6.40
2010,11,16,02,43,8.10
2010,11,16,02,44,6.40
2010,11,16,02,45,8.10
2010,11,16,02,46,8.10
2010,11,16,02,47,6.40
2010,11,16,02,48,8.10
2010,11,16,02,49,9.60
2010,11,16,02,50,11.30
2010,11,16,02,51,17.70
2010,11,16,02,52,14.50
2010,11,16,02,53,8.10
2010,11,16,02,54,9.60
2010,11,16,02,55,8.10
2010,11,16,02,56,6.40
2010,11,16,02,57,4.80
2010,11,16,02,58,6.40
2010,11,16,02,59,6.40
2010,11,16,03,00,14.50
2010,11,16,03,01,12.90
2010,11,16,03,02,16.10
2010,11,16,03,03,9.60
2010,11,16,03,04,9.60
2010,11,16,03,05,9.60
2010,11,16,03,06,11.30
2010,11,16,03,07,9.60
2010,11,16,03,08,8.10
2010,11,16,03,09,4.80
2010,11,16,03,10,4.80
2010,11,16,03,11,3.20
2010,11,16,03,12,6.40
2010,11,16,03,13,6.40
2010,11,16,03,14,4.80
2010,11,16,03,15,8.10
2010,11,16,03,16,8.10
2010,11,16,03,17,6.40
2010,11,16,03,18,6.40
2010,11,16,03,19,4.80
2010,11,16,03,20,4.80
2010,11,16,03,21,4.80
2010,11,16,03,22,4.80
2010,11,16,03,23,8.10
2010,11,16,03,24,8.10
2010,11,16,03,25,8.10
2010,11,16,03,26,8.10
2010,11,16,03,27,8.10
2010,11,16,03,28,1.60
2010,11,16,03,29,3.20
2010,11,16,03,30,14.50
2010,11,16,03,31,11.30
2010,11,16,03,32,9.60
2010,11,16,03,33,8.10
2010,11,16,03,34,17.70
2010,11,16,03,35,8.10
2010,11,16,03,36,8.10
2010,11,16,03,37,9.60
2010,11,16,03,38,4.80
2010,11,16,03,39,6.40
2010,11,16,03,40,4.80
2010,11,16,03,41,9.60
2010,11,16,03,42,4.80
2010,11,16,03,43,6.40
2010,11,16,03,44,4.80
2010,11,16,03,45,6.40
2010,11,16,03,46,8.10
2010,11,16,03,47,9.60
2010,11,16,03,48,3.20
2010,11,16,03,49,3.20
2010,11,16,03,50,1.60
2010,11,16,03,51,1.60
2010,11,16,03,53,3.20
2010,11,16,03,54,3.20
2010,11,16,03,55,4.80
2010,11,16,03,56,3.20
2010,11,16,03,57,3.20
2010,11,16,03,58,4.80
2010,11,16,03,59,6.40
2010,11,16,04,00,6.40
2010,11,16,04,01,4.80
2010,11,16,04,02,4.80
2010,11,16,04,03,3.20
2010,11,16,04,04,9.60
2010,11,16,04,05,11.30
2010,11,16,04,06,8.10
2010,11,16,04,07,6.40
2010,11,16,04,08,6.40
2010,11,16,04,09,3.20
2010,11,16,04,10,6.40
2010,11,16,04,11,6.40
2010,11,16,04,12,8.10
2010,11,16,04,13,8.10
2010,11,16,04,14,22.50
2010,11,16,04,15,11.30
2010,11,16,04,16,12.90
2010,11,16,04,17,9.60
2010,11,16,04,18,11.30
2010,11,16,04,19,8.10
2010,11,16,04,20,6.40
2010,11,16,04,21,9.60
2010,11,16,04,22,11.30
2010,11,16,04,23,16.10
2010,11,16,04,24,11.30
2010,11,16,04,25,16.10
2010,11,16,04,26,20.90
2010,11,16,04,27,20.90
2010,11,16,04,28,22.50
2010,11,16,04,29,17.70
2010,11,16,04,30,9.60
2010,11,16,04,31,14.50
2010,11,16,04,32,11.30
2010,11,16,04,33,16.10
2010,11,16,04,34,11.30
2010,11,16,04,35,16.10
2010,11,16,04,36,9.60
2010,11,16,04,37,19.30
2010,11,16,04,38,22.50
2010,11,16,04,39,25.70
2010,11,16,04,40,20.90
2010,11,16,04,41,17.70
2010,11,16,04,42,25.70
2010,11,16,04,43,22.50
2010,11,16,04,44,24.20
2010,11,16,04,45,22.50
2010,11,16,04,46,24.20
2010,11,16,04,47,24.20
2010,11,16,04,48,25.70
2010,11,16,04,49,20.90
2010,11,16,04,50,20.90
2010,11,16,04,51,20.90
2010,11,16,04,52,22.50
2010,11,16,04,53,17.70
2010,11,16,04,54,20.90
2010,11,16,04,55,20.90
2010,11,16,04,56,22.50
2010,11,16,04,57,22.50
2010,11,16,04,58,20.90
2010,11,16,04,59,20.90
2010,11,16,05,00,22.50
2010,11,16,05,01,24.20
2010,11,16,05,02,20.90
2010,11,16,05,03,17.70
2010,11,16,05,04,27.40
2010,11,16,05,05,22.50
2010,11,16,05,06,20.90
2010,11,16,05,07,17.70
2010,11,16,05,08,20.90
2010,11,16,05,09,22.50
2010,11,16,05,10,22.50
2010,11,16,05,11,20.90
2010,11,16,05,12,19.30
2010,11,16,05,13,22.50
2010,11,16,05,14,20.90
2010,11,16,05,15,24.20
2010,11,16,05,16,19.30
2010,11,16,05,17,17.70
2010,11,16,05,18,11.30
2010,11,16,05,19,14.50
2010,11,16,05,20,20.90
2010,11,16,05,21,11.30
2010,11,16,05,22,8.10
2010,11,16,05,23,11.30
2010,11,16,05,24,9.60
2010,11,16,05,25,9.60
2010,11,16,05,26,11.30
2010,11,16,05,27,8.10
2010,11,16,05,28,8.10
2010,11,16,05,29,8.10
2010,11,16,05,30,16.10
2010,11,16,05,31,8.10
2010,11,16,05,32,16.10
2010,11,16,05,33,11.30
2010,11,16,05,34,14.50
2010,11,16,05,35,16.10
2010,11,16,05,36,14.50
2010,11,16,05,37,6.40
2010,11,16,05,38,8.10
2010,11,16,05,39,6.40
2010,11,16,05,40,4.80
2010,11,16,05,41,14.50
2010,11,16,05,42,14.50
2010,11,16,05,43,6.40
2010,11,16,05,44,8.10
2010,11,16,05,45,8.10
2010,11,16,05,46,16.10
2010,11,16,05,47,24.20
2010,11,16,05,48,17.70
2010,11,16,05,49,16.10
2010,11,16,05,50,11.30
2010,11,16,05,51,14.50
2010,11,16,05,52,8.10
2010,11,16,05,53,8.10
2010,11,16,05,54,14.50
2010,11,16,05,55,11.30
2010,11,16,05,56,14.50
2010,11,16,05,57,20.90
2010,11,16,05,58,20.90
2010,11,16,05,59,9.60
2010,11,16,06,00,9.60
2010,11,16,06,01,9.60
2010,11,16,06,02,4.80
2010,11,16,06,03,9.60
2010,11,16,06,04,8.10
2010,11,16,06,05,6.40
2010,11,16,06,06,9.60
2010,11,16,06,07,9.60
2010,11,16,06,08,9.60
2010,11,16,06,09,4.80
2010,11,16,06,10,6.40
2010,11,16,06,11,6.40
2010,11,16,06,12,11.30
2010,11,16,06,13,11.30
2010,11,16,06,14,6.40
2010,11,16,06,15,8.10
2010,11,16,06,16,6.40
2010,11,16,06,17,8.10
2010,11,16,06,18,9.60
2010,11,16,06,19,17.70
2010,11,16,06,20,16.10
2010,11,16,06,21,16.10
2010,11,16,06,22,9.60
2010,11,16,06,23,9.60
2010,11,16,06,24,14.50
2010,11,16,06,25,14.50
2010,11,16,06,26,16.10
2010,11,16,06,27,17.70
2010,11,16,06,28,19.30
2010,11,16,06,29,20.90
2010,11,16,06,30,11.30
2010,11,16,06,31,9.60
2010,11,16,06,32,14.50
2010,11,16,06,33,17.70
2010,11,16,06,34,20.90
2010,11,16,06,35,14.50
2010,11,16,06,36,9.60
2010,11,16,06,37,11.30
2010,11,16,06,38,17.70
2010,11,16,06,39,19.30
2010,11,16,06,40,14.50
2010,11,16,06,41,6.40
2010,11,16,06,42,9.60
2010,11,16,06,43,9.60
2010,11,16,06,44,9.60
2010,11,16,06,45,8.10
2010,11,16,06,46,11.30
2010,11,16,06,47,11.30
2010,11,16,06,48,9.60
2010,11,16,06,49,8.10
2010,11,16,06,50,9.60
2010,11,16,06,51,9.60
2010,11,16,06,52,9.60
2010,11,16,06,53,9.60
2010,11,16,06,54,4.80
2010,11,16,06,55,8.10
2010,11,16,06,56,11.30
2010,11,16,06,57,9.60
2010,11,16,06,58,14.50
2010,11,16,06,59,12.90
2010,11,16,07,00,14.50
2010,11,16,07,01,11.30
2010,11,16,07,02,11.30
2010,11,16,07,03,11.30
2010,11,16,07,04,11.30
2010,11,16,07,05,8.10
2010,11,16,07,06,16.10
2010,11,16,07,07,14.50
2010,11,16,07,08,9.60
2010,11,16,07,09,12.90
2010,11,16,07,10,14.50
2010,11,16,07,11,19.30
2010,11,16,07,12,19.30
2010,11,16,07,13,17.70
2010,11,16,07,14,11.30
2010,11,16,07,15,14.50
2010,11,16,07,16,11.30
2010,11,16,07,17,16.10
2010,11,16,07,18,14.50
2010,11,16,07,19,11.30
2010,11,16,07,20,11.30
2010,11,16,07,21,11.30
2010,11,16,07,22,11.30
2010,11,16,07,23,14.50
2010,11,16,07,24,8.10
2010,11,16,07,25,8.10
2010,11,16,07,26,8.10
2010,11,16,07,27,9.60
2010,11,16,07,28,4.80
2010,11,16,07,29,8.10
2010,11,16,07,30,8.10
2010,11,16,07,31,8.10
2010,11,16,07,32,9.60
2010,11,16,07,33,6.40
2010,11,16,07,34,4.80
2010,11,16,07,35,4.80
2010,11,16,07,37,1.60
2010,11,16,07,38,4.80
2010,11,16,07,39,1.60
2010,11,16,07,43,3.20
2010,11,16,07,44,4.80
2010,11,16,07,45,6.40
2010,11,16,07,46,4.80
2010,11,16,07,47,4.80
2010,11,16,07,48,3.20
2010,11,16,07,49,4.80
2010,11,16,07,50,4.80
2010,11,16,07,51,4.80
2010,11,16,07,52,3.20
2010,11,16,07,53,1.60
2010,11,16,07,54,3.20
2010,11,16,07,55,3.20
2010,11,16,07,56,3.20
2010,11,16,07,57,1.60
2010,11,16,07,58,3.20
2010,11,16,07,59,3.20
2010,11,16,08,00,3.20
2010,11,16,08,01,1.60
2010,11,16,08,02,1.60
2010,11,16,08,03,1.60
2010,11,16,08,04,1.60
2010,11,16,08,19,1.60
2010,11,16,08,20,3.20
2010,11,16,08,21,3.20
2010,11,16,08,22,3.20
2010,11,16,08,23,3.20
2010,11,16,08,24,4.80
2010,11,16,08,25,6.40
2010,11,16,08,26,4.80
2010,11,16,08,27,3.20
2010,11,16,08,28,3.20
2010,11,16,08,29,1.60
2010,11,16,08,30,3.20
2010,11,16,08,31,3.20
2010,11,16,08,32,1.60
2010,11,16,08,36,1.60
2010,11,16,08,37,1.60
2010,11,16,08,58,1.60
2010,11,16,08,59,1.60
2010,11,16,09,00,1.60
2010,11,16,09,01,8.10
2010,11,16,09,02,6.40
2010,11,16,09,05,1.60
2010,11,16,09,06,1.60
2010,11,16,09,07,4.80
2010,11,16,09,08,3.20
2010,11,16,09,17,1.60
2010,11,16,09,18,4.80
2010,11,16,09,19,4.80
2010,11,16,09,20,4.80
2010,11,16,09,21,3.20
2010,11,16,09,22,4.80
2010,11,16,09,23,6.40
2010,11,16,09,24,6.40
2010,11,16,09,25,4.80
2010,11,16,09,26,4.80
2010,11,16,09,27,6.40
2010,11,16,09,28,3.20
2010,11,16,09,29,4.80
2010,11,16,09,30,6.40
2010,11,16,09,31,4.80
2010,11,16,09,32,4.80
2010,11,16,09,33,6.40
2010,11,16,09,34,6.40
2010,11,16,09,35,4.80
2010,11,16,09,36,4.80
2010,11,16,09,37,4.80
2010,11,16,09,38,4.80
2010,11,16,09,39,1.60
2010,11,16,09,40,4.80
2010,11,16,09,41,1.60
2010,11,16,09,42,3.20
2010,11,16,09,43,3.20
2010,11,16,09,44,3.20
2010,11,16,09,45,4.80
2010,11,16,09,46,4.80
2010,11,16,09,47,6.40
2010,11,16,09,48,6.40
2010,11,16,09,49,4.80
2010,11,16,09,50,6.40
2010,11,16,09,51,6.40
2010,11,16,09,52,6.40
2010,11,16,09,53,6.40
2010,11,16,09,54,8.10
2010,11,16,09,55,6.40
2010,11,16,09,56,4.80
2010,11,16,09,57,6.40
2010,11,16,09,58,4.80
2010,11,16,09,59,4.80
2010,11,16,10,00,4.80
2010,11,16,10,01,3.20
2010,11,16,10,02,6.40
2010,11,16,10,03,4.80
2010,11,16,10,04,3.20
2010,11,16,10,05,6.40
2010,11,16,10,06,3.20
2010,11,16,10,07,4.80
2010,11,16,10,08,4.80
2010,11,16,10,09,3.20
2010,11,16,10,10,4.80
2010,11,16,10,11,3.20
2010,11,16,10,12,6.40
2010,11,16,10,13,8.10
2010,11,16,10,14,6.40
2010,11,16,10,15,6.40
2010,11,16,10,16,6.40
2010,11,16,10,17,4.80
2010,11,16,10,18,4.80
2010,11,16,10,19,6.40
2010,11,16,10,20,6.40
2010,11,16,10,21,6.40
2010,11,16,10,22,6.40
2010,11,16,10,23,6.40
2010,11,16,10,24,8.10
2010,11,16,10,25,6.40
2010,11,16,10,26,4.80
2010,11,16,10,27,8.10
2010,11,16,10,28,4.80
2010,11,16,10,29,4.80
2010,11,16,10,31,4.80
2010,11,16,10,32,4.80
2010,11,16,10,33,4.80
2010,11,16,10,34,4.80
2010,11,16,10,35,4.80
2010,11,16,10,36,4.80
2010,11,16,10,37,4.80
2010,11,16,10,38,4.80
2010,11,16,10,39,4.80
2010,11,16,10,40,4.80
2010,11,16,10,41,4.80
2010,11,16,10,42,3.20
2010,11,16,10,43,1.60
2010,11,16,10,45,6.40
2010,11,16,10,46,6.40
2010,11,16,10,47,6.40
2010,11,16,10,48,4.80
2010,11,16,10,49,4.80
2010,11,16,10,50,3.20
2010,11,16,10,51,1.60
2010,11,16,10,53,4.80
2010,11,16,10,54,4.80
2010,11,16,10,55,3.20
2010,11,16,10,56,8.10
2010,11,16,10,57,8.10
2010,11,16,10,58,4.80
2010,11,16,10,59,8.10
2010,11,16,11,00,17.70
2010,11,16,11,01,9.60
2010,11,16,11,02,14.50
2010,11,16,11,03,11.30
2010,11,16,11,04,8.10
2010,11,16,11,05,9.60
2010,11,16,11,06,11.30
2010,11,16,11,07,9.60
2010,11,16,11,08,8.10
2010,11,16,11,09,6.40
2010,11,16,11,10,6.40
2010,11,16,11,11,8.10
2010,11,16,11,12,9.60
2010,11,16,11,13,14.50
2010,11,16,11,14,29.00
2010,11,16,11,15,25.70
2010,11,16,11,16,17.70
2010,11,16,11,17,29.00
2010,11,16,11,18,20.90
2010,11,16,11,19,11.30
2010,11,16,11,20,20.90
2010,11,16,11,21,20.90
2010,11,16,11,22,22.50
2010,11,16,11,23,20.90
2010,11,16,11,24,17.70
2010,11,16,11,25,16.10
2010,11,16,11,26,17.70
2010,11,16,11,27,20.90
2010,11,16,11,28,20.90
2010,11,16,11,29,17.70
2010,11,16,11,30,20.90
2010,11,16,11,31,22.50
2010,11,16,11,32,25.70
2010,11,16,11,33,22.50
2010,11,16,11,34,19.30
2010,11,16,11,35,30.60
2010,11,16,11,36,29.00
2010,11,16,11,37,27.40
2010,11,16,11,38,22.50
2010,11,16,11,39,19.30
2010,11,16,11,40,30.60
2010,11,16,11,41,29.00
2010,11,16,11,42,29.00
2010,11,16,11,43,24.20
2010,11,16,11,44,19.30
2010,11,16,11,45,27.40
2010,11,16,11,46,24.20
2010,11,16,11,47,17.70
2010,11,16,11,48,22.50
2010,11,16,11,49,27.40
2010,11,16,11,50,24.20
2010,11,16,11,51,29.00
2010,11,16,11,52,33.80
2010,11,16,11,53,30.60
2010,11,16,11,54,27.40
2010,11,16,11,55,22.50
2010,11,16,11,56,16.10
2010,11,16,11,57,24.20
2010,11,16,11,58,19.30
2010,11,16,11,59,25.70
2010,11,16,12,00,24.20
2010,11,16,12,01,33.80
2010,11,16,12,02,24.20
2010,11,16,12,03,27.40
2010,11,16,12,04,24.20
2010,11,16,12,05,30.60
2010,11,16,12,06,24.20
2010,11,16,12,07,19.30
2010,11,16,12,08,22.50
2010,11,16,12,09,27.40
2010,11,16,12,10,25.70
2010,11,16,12,11,22.50
2010,11,16,12,12,20.90
2010,11,16,12,13,17.70
2010,11,16,12,14,17.70
2010,11,16,12,15,35.40
2010,11,16,12,16,30.60
2010,11,16,12,17,30.60
2010,11,16,12,18,27.40
2010,11,16,12,19,32.20
2010,11,16,12,20,24.20
2010,11,16,12,21,27.40
2010,11,16,12,22,29.00
2010,11,16,12,23,25.70
2010,11,16,12,24,19.30
2010,11,16,12,25,22.50
2010,11,16,12,26,19.30
2010,11,16,12,27,22.50
2010,11,16,12,28,24.20
2010,11,16,12,29,19.30
2010,11,16,12,30,30.60
2010,11,16,12,31,32.20
2010,11,16,12,32,25.70
2010,11,16,12,33,32.20
2010,11,16,12,34,20.90
2010,11,16,12,35,17.70
2010,11,16,12,36,24.20
2010,11,16,12,37,19.30
2010,11,16,12,38,19.30
2010,11,16,12,39,27.40
2010,11,16,12,40,22.50
2010,11,16,12,41,25.70
2010,11,16,12,42,27.40
2010,11,16,12,43,25.70
2010,11,16,12,44,25.70
2010,11,16,12,45,29.00
2010,11,16,12,46,30.60
2010,11,16,12,47,32.20
2010,11,16,12,48,20.90
2010,11,16,12,49,29.00
2010,11,16,12,50,27.40
2010,11,16,12,51,32.20
2010,11,16,12,52,24.20
2010,11,16,12,53,35.40
2010,11,16,12,54,29.00
2010,11,16,12,55,30.60
2010,11,16,12,56,27.40
2010,11,16,12,57,27.40
2010,11,16,12,58,29.00
2010,11,16,12,59,25.70
2010,11,16,13,00,25.70
2010,11,16,13,01,30.60
2010,11,16,13,02,32.20
2010,11,16,13,03,32.20
2010,11,16,13,04,29.00
2010,11,16,13,05,22.50
2010,11,16,13,06,25.70
2010,11,16,13,07,17.70
2010,11,16,13,08,29.00
2010,11,16,13,09,29.00
2010,11,16,13,10,25.70
2010,11,16,13,11,22.50
2010,11,16,13,12,27.40
2010,11,16,13,13,17.70
2010,11,16,13,14,16.10
2010,11,16,13,15,22.50
2010,11,16,13,16,20.90
2010,11,16,13,17,30.60
2010,11,16,13,18,24.20
2010,11,16,13,19,27.40
2010,11,16,13,20,32.20
2010,11,16,13,21,35.40
2010,11,16,13,22,27.40
2010,11,16,13,23,20.90
2010,11,16,13,24,30.60
2010,11,16,13,25,37.00
2010,11,16,13,26,33.80
2010,11,16,13,27,32.20
2010,11,16,13,28,30.60
2010,11,16,13,29,24.20
2010,11,16,13,30,33.80
2010,11,16,13,31,25.70
2010,11,16,13,32,24.20
2010,11,16,13,33,27.40
2010,11,16,13,34,24.20
2010,11,16,13,35,22.50
2010,11,16,13,36,25.70
2010,11,16,13,37,29.00
2010,11,16,13,38,27.40
2010,11,16,13,39,25.70
2010,11,16,13,40,25.70
2010,11,16,13,41,32.20
2010,11,16,13,42,24.20
2010,11,16,13,43,22.50
2010,11,16,13,44,27.40
2010,11,16,13,45,27.40
2010,11,16,13,46,16.10
2010,11,16,13,47,19.30
2010,11,16,13,48,22.50
2010,11,16,13,49,22.50
2010,11,16,13,50,14.50
2010,11,16,13,51,17.70
2010,11,16,13,52,29.00
2010,11,16,13,53,29.00
2010,11,16,13,54,35.40
2010,11,16,13,55,29.00
2010,11,16,13,56,27.40
2010,11,16,13,57,43.50
2010,11,16,13,58,24.20
2010,11,16,13,59,32.20
2010,11,16,14,00,33.80
2010,11,16,14,01,29.00
2010,11,16,14,02,20.90
2010,11,16,14,03,27.40
2010,11,16,14,04,29.00
2010,11,16,14,05,17.70
2010,11,16,14,06,27.40
2010,11,16,14,07,24.20
2010,11,16,14,08,24.20
2010,11,16,14,09,30.60
2010,11,16,14,10,27.40
2010,11,16,14,11,30.60
2010,11,16,14,12,25.70
2010,11,16,14,13,29.00
2010,11,16,14,14,27.40
2010,11,16,14,15,33.80
2010,11,16,14,16,30.60
2010,11,16,14,17,32.20
2010,11,16,14,18,25.70
2010,11,16,14,19,25.70
2010,11,16,14,20,25.70
2010,11,16,14,21,24.20
2010,11,16,14,22,11.30
2010,11,16,14,23,22.50
2010,11,16,14,24,20.90
2010,11,16,14,25,30.60
2010,11,16,14,26,24.20
2010,11,16,14,27,20.90
2010,11,16,14,28,19.30
2010,11,16,14,29,22.50
2010,11,16,14,30,24.20
2010,11,16,14,31,30.60
2010,11,16,14,32,19.30
2010,11,16,14,33,22.50
2010,11,16,14,34,25.70
2010,11,16,14,35,25.70
2010,11,16,14,36,24.20
2010,11,16,14,37,30.60
2010,11,16,14,38,24.20
2010,11,16,14,39,22.50
2010,11,16,14,40,22.50
2010,11,16,14,41,19.30
2010,11,16,14,42,19.30
2010,11,16,14,43,24.20
2010,11,16,14,44,29.00
2010,11,16,14,45,27.40
2010,11,16,14,46,22.50
2010,11,16,14,47,25.70
2010,11,16,14,48,24.20
2010,11,16,14,49,19.30
2010,11,16,14,50,22.50
2010,11,16,14,51,25.70
2010,11,16,14,52,27.40
2010,11,16,14,53,22.50
2010,11,16,14,54,20.90
2010,11,16,14,55,20.90
2010,11,16,14,56,19.30
2010,11,16,14,57,24.20
2010,11,16,14,58,24.20
2010,11,16,14,59,38.60
2010,11,16,15,00,30.60
2010,11,16,15,01,22.50
2010,11,16,15,02,25.70
2010,11,16,15,03,25.70
2010,11,16,15,04,24.20
2010,11,16,15,05,22.50
2010,11,16,15,06,33.80
2010,11,16,15,07,24.20
2010,11,16,15,08,29.00
2010,11,16,15,09,27.40
2010,11,16,15,10,27.40
2010,11,16,15,11,25.70
2010,11,16,15,12,32.20
2010,11,16,15,13,35.40
2010,11,16,15,14,30.60
2010,11,16,15,15,33.80
2010,11,16,15,16,30.60
2010,11,16,15,17,30.60
2010,11,16,15,18,27.40
2010,11,16,15,19,24.20
2010,11,16,15,20,24.20
2010,11,16,15,21,27.40
2010,11,16,15,22,25.70
2010,11,16,15,23,25.70
2010,11,16,15,24,25.70
2010,11,16,15,25,32.20
2010,11,16,15,26,30.60
2010,11,16,15,27,29.00
2010,11,16,15,28,27.40
2010,11,16,15,29,25.70
2010,11,16,15,30,19.30
2010,11,16,15,31,19.30
2010,11,16,15,32,27.40
2010,11,16,15,33,27.40
2010,11,16,15,34,16.10
2010,11,16,15,35,17.70
2010,11,16,15,36,17.70
2010,11,16,15,37,27.40
2010,11,16,15,38,22.50
2010,11,16,15,39,17.70
2010,11,16,15,40,17.70
2010,11,16,15,41,12.90
2010,11,16,15,42,27.40
2010,11,16,15,43,17.70
2010,11,16,15,44,19.30
2010,11,16,15,45,14.50
2010,11,16,15,46,20.90
2010,11,16,15,47,19.30
2010,11,16,15,48,22.50
2010,11,16,15,49,16.10
2010,11,16,15,50,11.30
2010,11,16,15,51,8.10
2010,11,16,15,52,8.10
2010,11,16,15,53,11.30
2010,11,16,15,54,17.70
2010,11,16,15,55,17.70
2010,11,16,15,56,19.30
2010,11,16,15,57,6.40
2010,11,16,15,58,8.10
2010,11,16,15,59,9.60
2010,11,16,16,00,11.30
2010,11,16,16,01,17.70
2010,11,16,16,02,9.60
2010,11,16,16,03,8.10
2010,11,16,16,04,9.60
2010,11,16,16,05,9.60
2010,11,16,16,06,14.50
2010,11,16,16,07,6.40
2010,11,16,16,08,6.40
2010,11,16,16,09,8.10
2010,11,16,16,10,11.30
2010,11,16,16,11,11.30
2010,11,16,16,12,17.70
2010,11,16,16,13,19.30
2010,11,16,16,14,17.70
2010,11,16,16,15,11.30
2010,11,16,16,16,9.60
2010,11,16,16,17,16.10
2010,11,16,16,18,17.70
2010,11,16,16,19,16.10
2010,11,16,16,20,8.10
2010,11,16,16,21,9.60
2010,11,16,16,22,11.30
2010,11,16,16,23,19.30
2010,11,16,16,24,19.30
2010,11,16,16,25,12.90
2010,11,16,16,26,11.30
2010,11,16,16,27,8.10
2010,11,16,16,28,9.60
2010,11,16,16,29,11.30
2010,11,16,16,30,8.10
2010,11,16,16,31,11.30
2010,11,16,16,32,16.10
2010,11,16,16,33,11.30
2010,11,16,16,34,9.60
2010,11,16,16,35,11.30
2010,11,16,16,36,9.60
2010,11,16,16,37,11.30
2010,11,16,16,38,17.70
2010,11,16,16,39,22.50
2010,11,16,16,40,12.90
2010,11,16,16,41,16.10
2010,11,16,16,42,11.30
2010,11,16,16,43,16.10
2010,11,16,16,44,24.20
2010,11,16,16,45,24.20
2010,11,16,16,46,11.30
2010,11,16,16,47,14.50
2010,11,16,16,48,20.90
2010,11,16,16,49,16.10
2010,11,16,16,50,20.90
2010,11,16,16,51,16.10
2010,11,16,16,52,20.90
2010,11,16,16,53,19.30
2010,11,16,16,54,19.30
2010,11,16,16,55,17.70
2010,11,16,16,56,16.10
2010,11,16,16,57,16.10
2010,11,16,16,58,9.60
2010,11,16,16,59,6.40
2010,11,16,17,00,11.30
2010,11,16,17,01,16.10
2010,11,16,17,02,14.50
2010,11,16,17,03,8.10
2010,11,16,17,04,9.60
2010,11,16,17,05,20.90
2010,11,16,17,06,16.10
2010,11,16,17,07,14.50
2010,11,16,17,08,17.70
2010,11,16,17,09,16.10
2010,11,16,17,10,8.10
2010,11,16,17,11,11.30
2010,11,16,17,12,24.20
2010,11,16,17,13,17.70
2010,11,16,17,14,16.10
2010,11,16,17,15,8.10
2010,11,16,17,16,17.70
2010,11,16,17,17,8.10
2010,11,16,17,18,11.30
2010,11,16,17,19,22.50
2010,11,16,17,20,22.50
2010,11,16,17,21,20.90
2010,11,16,17,22,16.10
2010,11,16,17,23,19.30
2010,11,16,17,24,6.40
2010,11,16,17,25,8.10
2010,11,16,17,26,9.60
2010,11,16,17,27,14.50
2010,11,16,17,28,19.30
2010,11,16,17,29,17.70
2010,11,16,17,30,11.30
2010,11,16,17,31,14.50
2010,11,16,17,32,11.30
2010,11,16,17,33,20.90
2010,11,16,17,34,20.90
2010,11,16,17,35,16.10
2010,11,16,17,36,19.30
2010,11,16,17,37,12.90
2010,11,16,17,38,29.00
2010,11,16,17,39,29.00
2010,11,16,17,40,19.30
2010,11,16,17,41,22.50
2010,11,16,17,42,24.20
2010,11,16,17,43,25.70
2010,11,16,17,44,27.40
2010,11,16,17,45,16.10
2010,11,16,17,46,11.30
2010,11,16,17,47,17.70
2010,11,16,17,48,20.90
2010,11,16,17,49,19.30
2010,11,16,17,50,32.20
2010,11,16,17,51,24.20
2010,11,16,17,52,20.90
2010,11,16,17,53,17.70
2010,11,16,17,54,19.30
2010,11,16,17,55,20.90
2010,11,16,17,56,14.50
2010,11,16,17,57,14.50
2010,11,16,17,58,20.90
2010,11,16,17,59,24.20
2010,11,16,18,00,35.40
2010,11,16,18,01,22.50
2010,11,16,18,02,32.20
2010,11,16,18,03,20.90
2010,11,16,18,04,22.50
2010,11,16,18,05,19.30
2010,11,16,18,06,17.70
2010,11,16,18,07,25.70
2010,11,16,18,08,24.20
2010,11,16,18,09,29.00
2010,11,16,18,10,25.70
2010,11,16,18,11,24.20
2010,11,16,18,12,22.50
2010,11,16,18,13,17.70
2010,11,16,18,14,20.90
2010,11,16,18,15,20.90
2010,11,16,18,16,16.10
2010,11,16,18,17,17.70
2010,11,16,18,18,19.30
2010,11,16,18,19,19.30
2010,11,16,18,20,29.00
2010,11,16,18,21,22.50
2010,11,16,18,22,9.60
2010,11,16,18,23,30.60
2010,11,16,18,24,30.60
2010,11,16,18,25,17.70
2010,11,16,18,26,19.30
2010,11,16,18,27,33.80
2010,11,16,18,28,27.40
2010,11,16,18,29,24.20
2010,11,16,18,30,22.50
2010,11,16,18,31,19.30
2010,11,16,18,32,11.30
2010,11,16,18,33,19.30
2010,11,16,18,34,16.10
2010,11,16,18,35,24.20
2010,11,16,18,36,20.90
2010,11,16,18,37,20.90
2010,11,16,18,38,14.50
2010,11,16,18,39,24.20
2010,11,16,18,40,20.90
2010,11,16,18,41,14.50
2010,11,16,18,42,17.70
2010,11,16,18,43,25.70
2010,11,16,18,44,29.00
2010,11,16,18,45,22.50
2010,11,16,18,46,30.60
2010,11,16,18,47,25.70
2010,11,16,18,48,27.40
2010,11,16,18,49,20.90
2010,11,16,18,50,22.50
2010,11,16,18,51,27.40
2010,11,16,18,52,27.40
2010,11,16,18,53,27.40
2010,11,16,18,54,30.60